STARLINK-11305, 61247

Orbit data source: Space-Track

STARLINK-11305, 61247 is a payload satellite owned by SpaceX/Seattle (US) in LEO that was launched on Wed, 25 Sep 2024 UTC via an FALCON 9 launch vehicle from the Air Force Western Test Range (AFWTR). Payload-class satellites include a variety of spacecraft equipped with specific instruments for various scientific and technological missions. These include communications satellites like Starlink; space stations such as the ISS; scientific satellites like the Hubble; Earth observation satellites from companies like Planet Labs, Umbra, and HawkEye 360; GPS; miniature CubeSats for education and research; and military/defense satellites.

Loading next visibility...
Identifier
61247, 2024-175E
Orbit
LEO
Last TLE update
11 hours ago
Origin
Manufacturer
SpaceX/Seattle
Mission
Operational Commercial Communications
Bus & Motor
STARLINK V2M, Unknown motor
Mass
730 kg wet, ~700 kg dry
Launch date (UTC)
2024-09-25 (9 months ago)
Launch vehicle
FALCON 9
Launch site
Air Force Western Test Range (AFWTR)
Object type
Payload
Rocket body
Debris
Shape & HBR
Box + 2 Pan, 29 m
Radar Cross Section
36.964 m², Large (>1 m²)

Expand to show TLE details & history

TLE from 11 hours ago
0 STARLINK-11305
1 61247U 24175E   25191.64696091 -.00000190  00000-0  32897-5 0  9993
2 61247  53.1594 169.2509 0001203  85.1921 274.9234 15.69709687 46552
Epoch: 2025-07-10T15:31Z
TLE epoch observation values (Epoch: 2025-07-10T15:31:37.422Z)
Latitude
-0.00005°
Longitude
7.53469°
Altitude
360.573 km
Speed
7.694 km/s
True Right ascension
11h 17m 00s
True Declination
0° 00' 00"
Sunlit
Object was in daylight at epoch
Visualization orbit readout
Latitude
51.29348°
Longitude
73.65734°
Altitude
365.026 km
Speed
7.697 km/s
Apparent Right ascension
23h 27m 16s
Apparent Declination
43° 29' 44"
Sunlit
Object is in daylight
Visualization observer readout
Local Sidereal Time
14:49:28
Azimuth
34.22° NE
Elevation
5.057°
Doppler factor
1
Orbital elements
Apogee altitude
360.799 km
Perigee altitude
359.178 km
Semi-major axis
6,738.125 km
Eccentricity
0.00012
Inclination
53.1594°
RAAN
169.2509°
Arg. of periapsis
85.1921°
True anomaly
Unknown
Mean anomaly
274.9234°
Eccentric anomaly
Unknown
Mean motion
3.92405 °/min
Orbital period
91.74 mins
BSTAR
0.0000032897
Loading maneuver chart data...
Loading SW <> Apogee altitude chart data...
Loading historical data...
Loading historical data...
Loading historical data...
Loading historical data...
Loading historical data...
Loading historical data...
Loading historical data...

STARLINK-11305 Visibility forecast

Observer location: undefined°, undefined°

Span
Click to sort rows by Start time (UTC) header in descending order
Start Az.
Max El. time (UTC)
Max El. Az.
Max El.
End time (UTC)
End Az.
4 mins2025-07-11 07:16:54.116Z342.655° N2025-07-11 07:18:54.116Z42.442° NE23.05°2025-07-11 07:20:54.116Z88.243° E
|